This is the latest recevied weather packets stored in our database for station/object WA4IKQ. If no packets are shown the sender has not sent any weather packets the latest 10 day(s).
| Time | Temp. | Humidity | Pressure | Rain* | Wind** | Luminosity | Snow |
|---|---|---|---|---|---|---|---|
| 1787427736 | 35° C | 47% | 1015 hPa | 0 mm | 0.45 m/s, 93° | - | - |
| 1787427663 | 35° C | 47% | 1015 hPa | 0 mm | 0.45 m/s, 93° | - | - |
| 1787427439 | 35° C | 48% | 1015.1 hPa | 0 mm | 3.13 m/s, 165° | - | - |
| 1787427367 | 35° C | 48% | 1015.1 hPa | 0 mm | 3.13 m/s, 165° | - | - |
| 1787427160 | 35.56° C | 46% | 1015.2 hPa | 0 mm | 0 m/s | - | - |
| 1787427062 | 35.56° C | 46% | 1015.2 hPa | 0 mm | 0 m/s | - | - |
| 1787426888 | 35.56° C | 48% | 1015.3 hPa | 0 mm | 1.34 m/s, 210° | - | - |
| 1787426759 | 35.56° C | 48% | 1015.3 hPa | 0 mm | 1.34 m/s, 210° | - | - |
| 1787426537 | 35° C | 46% | 1015.5 hPa | 0 mm | 1.34 m/s, 197° | - | - |
| 1787426460 | 35° C | 46% | 1015.5 hPa | 0 mm | 1.34 m/s, 197° | - | - |
| 1787426266 | 35° C | 49% | 1015.5 hPa | 0 mm | 0.45 m/s, 90° | - | - |
| 1787426169 | 35° C | 49% | 1015.5 hPa | 0 mm | 0.45 m/s, 90° | - | - |
| 1787425965 | 35° C | 48% | 1015.6 hPa | 0 mm | 1.34 m/s, 167° | - | - |
| 1787425860 | 35° C | 48% | 1015.6 hPa | 0 mm | 1.34 m/s, 167° | - | - |
| 1787424746 | 35° C | 49% | 1015.6 hPa | 0 mm | 1.34 m/s, 145° | - | - |
| 1787424659 | 35° C | 49% | 1015.6 hPa | 0 mm | 1.34 m/s, 145° | - | - |
| 1787424442 | 35° C | 49% | 1015.6 hPa | 0 mm | 0.45 m/s, 131° | - | - |
| 1787424359 | 35° C | 49% | 1015.6 hPa | 0 mm | 0.45 m/s, 131° | - | - |
| 1787423858 | 35° C | 47% | 1015.6 hPa | 0 mm | 0.89 m/s, 115° | - | - |
| 1787423761 | 35° C | 47% | 1015.6 hPa | 0 mm | 0.89 m/s, 115° | - | - |
| 1787423562 | 34.44° C | 47% | 1015.7 hPa | 0 mm | 1.79 m/s, 158° | - | - |
| 1787423460 | 34.44° C | 47% | 1015.7 hPa | 0 mm | 1.79 m/s, 158° | - | - |
| 1787423268 | 34.44° C | 48% | 1015.7 hPa | 0 mm | 1.34 m/s, 246° | - | - |
| 1787423160 | 34.44° C | 48% | 1015.7 hPa | 0 mm | 1.34 m/s, 246° | - | - |
| 1787422988 | 34.44° C | 50% | 1015.8 hPa | 0 mm | 0 m/s | - | - |
* Rain latest hour (hover to see other rain measurements)
** Current wind speed in m/s (hover to see current wind gust speed)